TimeEDT,TemperatureF,Dew PointF,Humidity,Sea Level PressureIn,VisibilityMPH,Wind Direction,Wind SpeedMPH,Gust SpeedMPH,PrecipitationIn,Events,Conditions,WindDirDegrees,DateUTC
12:15 AM,44.6,39.2,81,29.97,10.0,Calm,Calm,-,N/A,,Clear,0,2013-03-21 04:15:00
12:35 AM,44.6,41.0,87,29.98,10.0,Calm,Calm,-,N/A,,Clear,0,2013-03-21 04:35:00
12:55 AM,46.4,35.6,66,29.98,10.0,Calm,Calm,-,N/A,,Clear,0,2013-03-21 04:55:00
1:15 AM,48.2,33.8,58,29.97,10.0,Calm,Calm,-,N/A,,Clear,0,2013-03-21 05:15:00
1:35 AM,46.4,35.6,66,29.98,10.0,Calm,Calm,-,N/A,,Clear,0,2013-03-21 05:35:00
2:15 AM,50.0,33.8,54,29.97,10.0,Calm,Calm,-,N/A,,Clear,0,2013-03-21 06:15:00
2:35 AM,50.0,33.8,54,29.98,10.0,Calm,Calm,-,N/A,,Clear,0,2013-03-21 06:35:00
2:55 AM,48.2,33.8,58,29.98,10.0,Calm,Calm,-,N/A,,Clear,0,2013-03-21 06:55:00
3:15 AM,48.2,33.8,58,29.98,10.0,Calm,Calm,-,N/A,,Clear,0,2013-03-21 07:15:00
3:35 AM,48.2,33.8,58,29.98,10.0,Calm,Calm,-,N/A,,Clear,0,2013-03-21 07:35:00
4:15 AM,46.4,33.8,62,29.99,10.0,Calm,Calm,-,N/A,,Clear,0,2013-03-21 08:15:00
4:35 AM,46.4,33.8,62,29.98,10.0,Calm,Calm,-,N/A,,Clear,0,2013-03-21 08:35:00
4:55 AM,44.6,33.8,66,29.98,10.0,Calm,Calm,-,N/A,,Clear,0,2013-03-21 08:55:00
5:15 AM,44.6,33.8,66,29.98,10.0,Calm,Calm,-,N/A,,Clear,0,2013-03-21 09:15:00
5:35 AM,44.6,33.8,66,29.98,10.0,Calm,Calm,-,N/A,,Clear,0,2013-03-21 09:35:00
5:55 AM,44.6,33.8,66,29.98,10.0,Calm,Calm,-,N/A,,Clear,0,2013-03-21 09:55:00
6:15 AM,42.8,35.6,76,29.99,10.0,Calm,Calm,-,N/A,,Clear,0,2013-03-21 10:15:00
6:35 AM,41.0,35.6,81,29.99,10.0,Calm,Calm,-,N/A,,Clear,0,2013-03-21 10:35:00
6:55 AM,39.2,35.6,87,29.99,10.0,Calm,Calm,-,N/A,,Clear,0,2013-03-21 10:55:00
7:15 AM,39.2,35.6,87,29.98,10.0,Calm,Calm,-,N/A,,Clear,0,2013-03-21 11:15:00
7:35 AM,37.4,35.6,93,29.99,10.0,Calm,Calm,-,N/A,,Clear,0,2013-03-21 11:35:00
7:55 AM,39.2,37.4,93,29.99,10.0,Calm,Calm,-,N/A,,Clear,0,2013-03-21 11:55:00
8:15 AM,39.2,35.6,87,30.00,10.0,WSW,3.5,-,N/A,,Clear,240,2013-03-21 12:15:00
8:35 AM,42.8,35.6,76,30.00,10.0,Calm,Calm,-,N/A,,Clear,0,2013-03-21 12:35:00
8:55 AM,42.8,37.4,81,30.01,10.0,Calm,Calm,-,N/A,,Clear,0,2013-03-21 12:55:00
9:15 AM,44.6,35.6,71,30.01,10.0,NW,3.5,-,N/A,,Clear,310,2013-03-21 13:15:00
9:35 AM,46.4,35.6,66,30.02,10.0,Calm,Calm,-,N/A,,Clear,0,2013-03-21 13:35:00
9:55 AM,50.0,33.8,54,30.02,10.0,NW,4.6,-,N/A,,Clear,320,2013-03-21 13:55:00
10:15 AM,50.0,32.0,50,30.03,10.0,NW,6.9,-,N/A,,Clear,320,2013-03-21 14:15:00
10:35 AM,51.8,32.0,47,30.02,10.0,NW,4.6,-,N/A,,Clear,320,2013-03-21 14:35:00
10:55 AM,53.6,28.4,38,30.03,10.0,North,8.1,-,N/A,,Clear,350,2013-03-21 14:55:00
11:15 AM,53.6,28.4,38,30.03,10.0,NW,8.1,-,N/A,,Clear,320,2013-03-21 15:15:00
11:35 AM,53.6,28.4,38,30.03,10.0,NW,10.4,16.1,N/A,,Clear,320,2013-03-21 15:35:00
11:55 AM,55.4,28.4,36,30.02,10.0,North,6.9,-,N/A,,Clear,10,2013-03-21 15:55:00
12:15 PM,55.4,28.4,36,30.02,10.0,Calm,Calm,-,N/A,,Clear,0,2013-03-21 16:15:00
12:35 PM,55.4,28.4,36,30.02,10.0,NW,6.9,-,N/A,,Clear,320,2013-03-21 16:35:00
12:55 PM,57.2,30.2,36,30.02,10.0,Calm,Calm,-,N/A,,Clear,0,2013-03-21 16:55:00
1:15 PM,59.0,28.4,31,30.01,10.0,Calm,Calm,-,N/A,,Clear,0,2013-03-21 17:15:00
1:35 PM,59.0,28.4,31,30.00,10.0,NW,6.9,-,N/A,,Clear,320,2013-03-21 17:35:00
1:55 PM,60.8,28.4,29,29.99,10.0,NW,10.4,-,N/A,,Clear,310,2013-03-21 17:55:00
2:15 PM,59.0,28.4,31,29.98,10.0,Calm,Calm,-,N/A,,Clear,0,2013-03-21 18:15:00
2:35 PM,60.8,28.4,29,29.97,10.0,WNW,9.2,21.9,N/A,,Clear,300,2013-03-21 18:35:00
2:55 PM,60.8,28.4,29,29.96,10.0,West,10.4,16.1,N/A,,Clear,270,2013-03-21 18:55:00
3:15 PM,62.6,28.4,27,29.95,10.0,NNW,11.5,17.3,N/A,,Clear,330,2013-03-21 19:15:00
3:35 PM,62.6,26.6,26,29.95,10.0,WNW,12.7,17.3,N/A,,Clear,300,2013-03-21 19:35:00
3:55 PM,62.6,28.4,27,29.94,10.0,WNW,5.8,-,N/A,,Clear,300,2013-03-21 19:55:00
4:15 PM,62.6,28.4,27,29.94,10.0,West,8.1,-,N/A,,Clear,280,2013-03-21 20:15:00
4:35 PM,62.6,28.4,27,29.93,10.0,WNW,8.1,-,N/A,,Clear,290,2013-03-21 20:35:00
4:55 PM,64.4,28.4,26,29.93,10.0,West,4.6,16.1,N/A,,Clear,280,2013-03-21 20:55:00
5:15 PM,64.4,28.4,26,29.92,10.0,NW,8.1,-,N/A,,Clear,320,2013-03-21 21:15:00
5:35 PM,62.6,28.4,27,29.92,10.0,Calm,Calm,-,N/A,,Clear,0,2013-03-21 21:35:00
5:55 PM,64.4,28.4,26,29.92,10.0,NW,4.6,-,N/A,,Clear,310,2013-03-21 21:55:00
6:15 PM,62.6,26.6,26,29.91,10.0,NW,3.5,-,N/A,,Clear,310,2013-03-21 22:15:00
6:35 PM,62.6,26.6,26,29.91,10.0,NW,3.5,-,N/A,,Clear,320,2013-03-21 22:35:00
6:55 PM,62.6,28.4,27,29.91,10.0,WNW,3.5,-,N/A,,Clear,300,2013-03-21 22:55:00
7:15 PM,62.6,28.4,27,29.92,10.0,Calm,Calm,-,N/A,,Clear,0,2013-03-21 23:15:00
7:35 PM,60.8,30.2,31,29.92,10.0,Calm,Calm,-,N/A,,Clear,0,2013-03-21 23:35:00
7:55 PM,59.0,32.0,36,29.92,10.0,Calm,Calm,-,N/A,,Clear,0,2013-03-21 23:55:00
8:15 PM,55.4,33.8,44,29.93,10.0,Calm,Calm,-,N/A,,Clear,0,2013-03-22 00:15:00
8:35 PM,53.6,33.8,47,29.93,10.0,Calm,Calm,-,N/A,,Clear,0,2013-03-22 00:35:00
8:55 PM,51.8,33.8,50,29.94,10.0,Calm,Calm,-,N/A,,Clear,0,2013-03-22 00:55:00
9:15 PM,51.8,37.4,58,29.94,10.0,Calm,Calm,-,N/A,,Clear,0,2013-03-22 01:15:00
9:35 PM,51.8,37.4,58,29.95,10.0,Calm,Calm,-,N/A,,Clear,0,2013-03-22 01:35:00
9:55 PM,53.6,33.8,47,29.95,10.0,Calm,Calm,-,N/A,,Clear,0,2013-03-22 01:55:00
10:15 PM,50.0,39.2,66,29.96,10.0,Calm,Calm,-,N/A,,Clear,0,2013-03-22 02:15:00
10:35 PM,53.6,33.8,47,29.96,10.0,Calm,Calm,-,N/A,,Scattered Clouds,0,2013-03-22 02:35:00
10:55 PM,53.6,32.0,44,29.95,10.0,Calm,Calm,-,N/A,,Scattered Clouds,0,2013-03-22 02:55:00
11:15 PM,51.8,33.8,50,29.96,10.0,Calm,Calm,-,N/A,,Scattered Clouds,0,2013-03-22 03:15:00
11:35 PM,50.0,35.6,58,29.96,10.0,Calm,Calm,-,N/A,,Scattered Clouds,0,2013-03-22 03:35:00
11:55 PM,50.0,35.6,58,29.96,10.0,Calm,Calm,-,N/A,,Scattered Clouds,0,2013-03-22 03:55:00